星链-3890 (STARLINK-3890 )

导读

STARLINK-3890是美国太空探索技术公司(SpaceX)星链计划的卫星,于2022年5月6日发射升空。作为星链星座组网的一部分,它主要为全球提供高速互联网接入服务,尤其覆盖偏远地区等网络基础设施匮乏区域。该卫星运行在近地轨道,依托星链大规模星座部署,助力实现全球无缝网络覆盖目标。

Basic Information
目录编号:
52455
目录名称:
STARLINK-3890
国际标识:
2022-049E
轨道中心:
EARTH
卫星名称:
星链-3890
卫星全名:
星链-3890 (STARLINK-3890 )
卫星状态:
在轨 (已飞行1583 天)
发射日期:
2022-05-06 UTC
国别 :
美国 (US)
星等 :
--
Orbit Information
数据来源 国际轨道数据
星历时间: 2026-09-05T12:00:02+0800
4小时前
查看轨道信息
半长轴: 6847.623km
偏心率: 0.0001291
轨道倾角: 53.161°
近地点辐角 66.313°
升交点赤经 341.199°
平近点角 173.987°
近地点: 468.601km
远地点: 470.371km
周期: 93.987分钟
每日圈数: 15.321211
Detailed Information
固有亮度:
5
最大亮度:
2.5
卫星平台:
Starlink v1.5
覆盖范围:
全球
运营商:
太空探索技术公司
运营商所在国:
美国
制造商(研发单位):
太空探索技术公司
制造商所在国:
美国
使用方式:
暂无
Satellite Introduction
星链(Starlink)计划是由太空探索技术公司(SpaceX)提出的一个巨型低轨卫星互联网星座项目,计划在2019年至2024年间在太空搭建由约1.2万颗卫星组成的“星链”网络,其中1584颗将部署在地球上空550千米处的近地轨道,并从2020年开始工作。该卫星仍在工作。
2D Orbit Map
3D Orbit Map
Orbit Altitude Analysis Chart
Orbit Inclination Analysis Chart
Orbit Comprehensive Analysis Chart
View Comprehensive Chart
Conjunction Data List
Event ID Objects TCA Miss Dist (km) Collision Risk Probability Collision Risk Index (CRI) Action
CDM_260907-001304-944405-245521
2026-09-07T
00:13:14+0000
1.553 km
极远距离
5.034343E-6 低风险 0.49
CDM_260906-042505-245506-914221
2026-09-06T
04:25:08+0000
1.683 km
极远距离
4.146428E-6 低风险 0.47
CDM_260906-222605-245506-974321
2026-09-06T
22:26:56+0000
1.920 km
极远距离
2.911292E-6 低风险 0.44
CDM_260907-121405-245506-240021
XCUBE-1 (62400)
2026-09-07T
12:14:48+0000
1.989 km
极远距离
2.326529E-6 低风险 0.42
CDM_260907-101605-245506-942221
2026-09-07T
10:16:30+0000
2.201 km
极远距离
2.201498E-6 低风险 0.42
CDM_260906-091104-813005-245521
2026-09-06T
09:11:45+0000
1.896 km
极远距离
2.081988E-6 低风险 0.41
CDM_260906-121305-245506-168021
2026-09-06T
12:13:08+0000
1.237 km
极远距离
1.88515E-6 低风险 0.41
CDM_260905-203905-245506-930021
2026-09-05T
20:39:51+0000
2.229 km
极远距离
1.656791E-6 低风险 0.39
CDM_260906-064805-245506-881422
2026-09-06T
06:48:03+0000
2.492 km
极远距离
1.637727E-6 低风险 0.39
CDM_260831-072705-245506-398821
OBJECT G (63988)
2026-08-31T
07:27:02+0000
2.143 km
极远距离
1.636875E-6 低风险 0.39